Waarnemingen

Advertentie
Mijn weer
AWG, Nederland (6208): temperatuur & dauwpunt: 13.10.2017 12:00:00 - 19.10.2017 12:00:00 (CEST)AWG, Nederland (6208): windsnelheid & windstoten: 13.10.2017 12:00:00 - 19.10.2017 12:00:00 (CEST)AWG, Nederland (6208): windrichting: 13.10.2017 12:00:00 - 19.10.2017 12:00:00 (CEST)AWG, Nederland (6208): luchtdruk: 13.10.2017 12:00:00 - 19.10.2017 12:00:00 (CEST)AWG, Nederland (6208): zicht: 13.10.2017 12:00:00 - 19.10.2017 12:00:00 (CEST)
Datum & Tijd tt [°C] td [°C] ff [km/u] ff [kn] fx [km/u] fx [kn] dd ppp [hPa] vv [km]
19.10.2017 12:00:00 13,0 13,0 24 13 - - ZO - 0,2
19.10.2017 11:00:00 12,5 12,4 21 11 - - ZO 1011,0 0,3
19.10.2017 10:00:00 12,1 12,0 22 12 22 12 ZO 1010,9 0,1
19.10.2017 09:00:00 12,1 12,0 26 14 25 14 ZO 1010,9 0,3
19.10.2017 08:00:00 12,3 12,2 21 11 22 12 ZO 1011,0 0,5
19.10.2017 07:00:00 12,4 12,2 18 10 18 10 ZO 1011,2 0,7
19.10.2017 06:00:00 12,4 12,1 18 10 22 12 ZO 1011,5 2,2
19.10.2017 05:00:00 12,3 12,1 18 10 22 12 ZO 1011,2 1,1
19.10.2017 04:00:00 12,2 12,0 18 10 22 12 ZO 1011,8 1,4
19.10.2017 03:00:00 12,3 11,9 22 12 22 12 OZO 1012,1 2,5
19.10.2017 02:00:00 12,5 11,7 22 12 25 14 OZO 1012,2 3,3
19.10.2017 01:00:00 13,6 11,6 24 13 25 14 OZO 1012,2 10
19.10.2017 00:00:00 14,2 11,5 26 14 29 16 O 1012,6 10
18.10.2017 23:00:00 14,7 11,4 22 12 25 14 O 1013,2 10
18.10.2017 22:00:00 15,1 11,5 21 11 22 12 OZO 1013,2 10
18.10.2017 21:00:00 15,0 11,9 21 11 22 12 OZO 1013,4 10
18.10.2017 20:00:00 14,7 11,7 18 10 22 12 OZO 1013,5 9
18.10.2017 19:00:00 14,2 11,9 16 9 22 12 - 1013,4 10
18.10.2017 18:00:00 14,0 11,1 16 9 22 12 - 1013,3 10
18.10.2017 17:00:00 13,9 11,4 16 9 22 12 - 1013,6 10
18.10.2017 16:00:00 13,9 11,0 15 8 22 12 - 1013,9 10
18.10.2017 15:00:00 14,0 10,5 11 6 18 10 - 1014,2 10
18.10.2017 14:00:00 13,8 11,6 9 5 14 8 - 1014,6 10
18.10.2017 13:00:00 13,5 11,0 11 6 14 8 OZO 1014,9 10
18.10.2017 12:00:00 12,9 11,0 5 3 11 6 OZO 1015,1 10
18.10.2017 11:00:00 12,8 11,3 8 4 11 6 Z 1015,3 10
18.10.2017 10:00:00 12,5 11,3 2 1 7 4 - 1015,3 10
18.10.2017 09:00:00 12,1 11,1 4 2 11 6 - 1015,1 10
18.10.2017 08:00:00 12,0 11,0 8 4 7 4 WZW 1015,2 10
18.10.2017 07:00:00 11,9 10,7 11 6 14 8 ZW 1015,3 10
18.10.2017 06:00:00 11,9 10,5 13 7 14 8 ZW 1015,6 10
18.10.2017 05:00:00 11,3 10,1 9 5 18 10 - 1015,6 10
18.10.2017 04:00:00 12,7 11,2 15 8 18 10 WZW 1016,1 10
18.10.2017 03:00:00 12,4 11,0 18 10 18 10 ZW 1016,5 10
18.10.2017 02:00:00 12,6 10,8 18 10 22 12 ZZW 1016,7 10
18.10.2017 01:00:00 12,6 10,8 21 11 22 12 ZW 1016,9 10
18.10.2017 00:00:00 13,0 10,6 22 12 22 12 ZZW 1017,1 10
17.10.2017 23:00:00 12,7 10,3 21 11 25 14 ZZW 1017,3 10
17.10.2017 22:00:00 13,9 9,9 22 12 25 14 WZW 1017,2 10
17.10.2017 21:00:00 14,0 10,5 24 13 25 14 WZW 1017,1 10
17.10.2017 20:00:00 14,0 10,3 29 16 32 18 WZW 1017,3 10
17.10.2017 19:00:00 14,2 9,7 31 17 32 18 WZW 1017,3 10
17.10.2017 18:00:00 14,2 10,0 35 19 36 19 ZW 1017,2 10
17.10.2017 17:00:00 14,4 9,6 39 21 40 21 ZW 1017,7 10
17.10.2017 16:00:00 14,5 10,1 39 21 43 23 ZW 1017,9 10
17.10.2017 15:00:00 14,7 9,7 42 23 43 23 ZW 1018,2 10
17.10.2017 14:00:00 14,7 9,3 39 21 43 23 ZW 1018,5 10
17.10.2017 13:00:00 14,7 9,1 41 22 43 23 ZW 1019,2 10
17.10.2017 12:00:00 14,6 9,6 41 22 47 25 ZW 1019,1 10
17.10.2017 11:00:00 14,6 10,3 39 21 40 21 ZW 1018,9 10
17.10.2017 10:00:00 14,6 10,2 39 21 43 23 WZW 1019,1 10
17.10.2017 09:00:00 14,6 10,4 37 20 40 21 WZW 1018,5 10
17.10.2017 08:00:00 14,5 10,7 34 18 36 19 WZW 1018,2 10
17.10.2017 07:00:00 14,9 11,0 34 18 40 21 ZW 1018,2 10
17.10.2017 06:00:00 14,9 11,2 35 19 40 21 WZW 1017,7 10
17.10.2017 05:00:00 15,3 11,8 35 19 36 19 ZW 1017,8 10
17.10.2017 04:00:00 15,6 11,5 35 19 40 21 ZZW 1017,6 10
17.10.2017 03:00:00 16,3 12,1 39 21 43 23 ZW 1017,7 10
17.10.2017 02:00:00 17,1 13,3 39 21 40 21 ZW 1017,5 10
17.10.2017 01:00:00 17,7 14,4 39 21 40 21 ZW 1017,6 10
17.10.2017 00:00:00 18,8 14,9 37 20 40 21 ZZW 1017,3 10
16.10.2017 23:00:00 19,5 15,4 35 19 50 27 ZZW 1016,8 10
16.10.2017 22:00:00 19,6 15,8 52 28 50 27 ZZW 1016,3 10
16.10.2017 21:00:00 19,9 16,1 52 28 50 27 Z 1016,3 10
16.10.2017 20:00:00 19,8 16,2 44 24 43 23 Z 1016,7 10
16.10.2017 19:00:00 20,0 16,6 39 21 40 21 Z 1016,9 10
16.10.2017 18:00:00 20,6 17,0 37 20 40 21 Z 1016,7 10
16.10.2017 17:00:00 20,8 17,0 39 21 36 19 Z 1017,5 10
16.10.2017 16:00:00 20,4 16,5 29 16 29 16 Z 1018,0 10
16.10.2017 15:00:00 20,4 16,1 18 10 25 14 - 1018,8 10
16.10.2017 14:00:00 18,9 15,2 26 14 25 14 ZW 1019,4 10
16.10.2017 13:00:00 18,6 15,0 26 14 25 14 ZW 1019,6 10
16.10.2017 12:00:00 17,8 14,8 24 13 29 16 ZW 1019,6 10
16.10.2017 11:00:00 17,0 14,3 28 15 32 18 - 1019,0 10
16.10.2017 10:00:00 15,1 13,4 37 20 36 19 ZZW 1018,7 10
16.10.2017 09:00:00 14,3 13,1 31 17 32 18 ZZW 1018,6 9
16.10.2017 08:00:00 14,6 13,3 35 19 36 19 ZZW 1018,2 8
16.10.2017 07:00:00 14,4 13,1 31 17 32 18 ZZW 1018,4 7
16.10.2017 06:00:00 14,6 13,1 28 15 29 16 ZZW 1018,3 8
16.10.2017 05:00:00 15,2 13,5 22 12 25 14 ZW 1018,5 9
16.10.2017 04:00:00 15,0 13,3 24 13 25 14 ZW 1018,8 10
16.10.2017 03:00:00 15,3 13,2 28 15 25 14 ZW 1019,0 10
16.10.2017 02:00:00 15,3 13,0 26 14 25 14 ZZW 1019,0 10
16.10.2017 01:00:00 16,3 13,1 29 16 40 21 ZZW 1018,8 10
16.10.2017 00:00:00 17,2 13,2 42 23 43 23 ZZW 1018,5 10
15.10.2017 23:00:00 16,5 13,6 46 25 47 25 ZZW 1018,2 10
15.10.2017 22:00:00 17,0 14,2 41 22 43 23 ZZW 1018,2 10
15.10.2017 21:00:00 17,3 14,5 42 23 43 23 ZZW 1018,1 10
15.10.2017 20:00:00 17,8 14,8 39 21 40 21 ZZW 1018,2 10
15.10.2017 19:00:00 18,8 14,9 42 23 40 21 Z 1018,0 10
15.10.2017 18:00:00 19,6 15,1 41 22 40 21 Z 1017,7 10
15.10.2017 17:00:00 20,1 14,0 41 22 43 23 Z 1018,0 10
15.10.2017 16:00:00 20,1 14,3 46 25 47 25 ZZW 1018,5 10
15.10.2017 15:00:00 19,8 14,0 46 25 47 25 ZZW 1018,9 10
15.10.2017 14:00:00 19,2 14,1 41 22 43 23 ZZW 1019,4 10
15.10.2017 13:00:00 18,1 14,4 39 21 43 23 ZZW 1020,4 10
15.10.2017 12:00:00 17,0 14,4 35 19 36 19 Z 1020,7 10
15.10.2017 11:00:00 15,6 13,9 35 19 36 19 Z 1021,3 8
15.10.2017 10:00:00 14,8 13,4 35 19 40 21 Z 1021,6 6
15.10.2017 09:00:00 14,2 13,2 41 22 40 21 Z 1022,0 4,7
15.10.2017 08:00:00 13,9 13,0 37 20 36 19 Z 1022,3 5
15.10.2017 07:00:00 13,6 12,7 37 20 36 19 Z 1022,7 4,3
15.10.2017 06:00:00 13,5 12,3 29 16 29 16 ZZW 1023,0 6
15.10.2017 05:00:00 13,9 12,6 29 16 32 18 ZZW 1023,2 7
15.10.2017 04:00:00 13,9 12,7 31 17 32 18 ZZW 1023,3 6
15.10.2017 03:00:00 13,7 12,5 34 18 32 18 ZZW 1023,7 7
15.10.2017 02:00:00 13,8 12,8 29 16 32 18 ZZW 1023,8 6
15.10.2017 01:00:00 14,4 13,5 26 14 29 16 ZZW 1024,3 5
15.10.2017 00:00:00 14,8 13,7 22 12 29 16 ZZW 1024,3 6
14.10.2017 23:00:00 15,6 14,3 22 12 22 12 ZZW 1024,4 7
14.10.2017 22:00:00 15,7 14,5 22 12 29 16 ZZW 1024,5 10
14.10.2017 21:00:00 15,7 14,3 28 15 32 18 ZZW 1024,5 10
14.10.2017 20:00:00 15,7 14,2 34 18 32 18 ZW 1024,9 10
14.10.2017 19:00:00 15,9 14,2 34 18 36 19 ZW 1024,2 10
14.10.2017 18:00:00 15,8 14,2 34 18 36 19 ZW 1023,9 10
14.10.2017 17:00:00 15,8 14,3 34 18 36 19 ZW 1023,9 10
14.10.2017 16:00:00 16,1 14,4 34 18 36 19 ZW 1023,7 10
14.10.2017 15:00:00 16,3 14,6 37 20 36 19 WZW 1023,5 10
14.10.2017 14:00:00 16,5 14,9 37 20 40 21 ZW 1023,3 10
14.10.2017 13:00:00 16,1 14,5 39 21 40 21 WZW 1023,6 10
14.10.2017 12:00:00 16,2 14,5 42 23 43 23 ZW 1023,5 10
14.10.2017 11:00:00 15,8 14,3 37 20 40 21 ZW 1023,3 10
14.10.2017 10:00:00 15,3 14,2 34 18 36 19 ZW 1023,1 10
14.10.2017 09:00:00 15,4 14,1 37 20 40 21 ZW 1022,6 10
14.10.2017 08:00:00 15,3 14,1 39 21 40 21 ZW 1022,2 10
14.10.2017 07:00:00 15,4 14,1 37 20 40 21 ZW 1022,4 10
14.10.2017 06:00:00 15,4 14,2 37 20 40 21 ZW 1022,0 10
14.10.2017 05:00:00 15,3 14,1 37 20 40 21 ZW 1021,9 10
14.10.2017 04:00:00 15,5 14,1 39 21 43 23 ZW 1021,9 10
14.10.2017 03:00:00 15,7 14,2 41 22 43 23 ZW 1021,5 10
14.10.2017 02:00:00 15,9 14,3 39 21 40 21 ZW 1021,7 10
14.10.2017 01:00:00 15,9 14,4 37 20 40 21 ZZW 1021,4 10
14.10.2017 00:00:00 16,1 14,5 39 21 43 23 ZW 1021,5 10
13.10.2017 23:00:00 16,2 14,5 39 21 43 23 ZW 1021,4 10
13.10.2017 22:00:00 16,3 14,5 37 20 43 23 ZZW 1021,3 10
13.10.2017 21:00:00 16,2 14,5 35 19 40 21 ZZW 1021,3 10
13.10.2017 20:00:00 16,4 14,4 37 20 40 21 ZZW 1020,9 10
13.10.2017 19:00:00 16,4 14,3 35 19 43 23 ZZW 1020,8 10
13.10.2017 18:00:00 16,3 14,2 37 20 43 23 ZW 1021,1 10
13.10.2017 17:00:00 15,6 14,3 39 21 43 23 ZW 1021,3 10
13.10.2017 16:00:00 15,2 13,9 41 22 43 23 ZW 1021,4 10
13.10.2017 15:00:00 15,1 13,5 39 21 43 23 ZW 1021,6 10
13.10.2017 14:00:00 15,6 13,5 39 21 43 23 ZW 1021,4 10
13.10.2017 13:00:00 15,8 13,2 34 18 36 19 ZZW 1021,5 10
13.10.2017 12:00:00 15,7 12,8 34 18 36 19 ZZW 1021,1 10

tt = temperatuur
td = dauwpunt
ff = windsnelheid
fx = windstoten
dd = windrichting
ppp = luchtdruk
vv = zicht

Weerstations in de omgeving